User: anonymous   Login
Location: Newark
(44.6028°N, 124.0883°W)
Time: 06:18:57
(UTC+00:00)
Language:

N. Korean satellite - Orbit

View from above orbital plane
View from above orbital plane
View from above satellite
View from above satellite

Ground track
Ground track

The orbit data is extracted from the following two-line orbital elements,

1 39026U 12072A   20335.75797082  .00005095  00000-0  17885-3 0  9991
2 39026  97.2324 327.7741 0037199  15.2175 345.0175 15.29185470442715
Epoch (UTC): 30 November 2020 18:11:28
Eccentricity: 0.0037199
inclination: 97.2324°
perigee height: 453 km
apogee height: 504 km
right ascension of ascending node: 327.7741°
argument of perigee: 15.2175°
revolutions per day: 15.29185470
mean anomaly at epoch: 345.0175°
orbit number at epoch: 44271

The dashed part of the orbit path shows where the satellite is in the earth's shadow,  

DLR